STARLINK-32467, 61713

Orbit data source: Space-Track

STARLINK-32467, 61713 is a payload satellite owned by SpaceX/Seattle (US) in LEO that was launched on Wed, 30 Oct 2024 UTC via an FALCON 9 launch vehicle from the Air Force Eastern Test Range (AFETR). Payload-class satellites include a variety of spacecraft equipped with specific instruments for various scientific and technological missions. These include communications satellites like Starlink; space stations such as the ISS; scientific satellites like the Hubble; Earth observation satellites from companies like Planet Labs, Umbra, and HawkEye 360; GPS; miniature CubeSats for education and research; and military/defense satellites.

Loading next visibility...
Identifier
61713, 2024-196G
Orbit
LEO
Country
Flag of USUS
Related business
Manufacturer
SpaceX/Seattle
Mission
Operational Commercial Communications
Bus & Motor
STARLINK V2M, Unknown motor
Mass
730 kg wet, ~700 kg dry
Launch date (UTC)
2024-10-30 (1 year ago)
Launch vehicle
FALCON 9
Launch site
Air Force Eastern Test Range (AFETR)
Object type
Payload
Rocket body
Debris
Shape & HBR
Box + 2 Pan, 17.7 m
Radar Cross Section
33.884 m², Large (>1 m²)

Expand to show TLE details & history
Last TLE update: 13 hours ago

TLE from 13 hours ago
0 STARLINK-32467
1 61713U 24196G   26034.60706809  .00000265  00000-0  21084-4 0  9993
2 61713  53.1587 259.9873 0000884 102.6116 257.4984 15.30188771 71939
Epoch: 2026-02-03T14:34Z
TLE epoch observation values (Epoch: 2026-02-03T14:34:10.682Z)
Latitude
-0.00002°
Longitude
-92.3428°
Altitude
476.279 km
Speed
7.629 km/s
True Right ascension
17h 19m 56s
True Declination
0° 00' 00"
Sunlit
Object was in daylight at epoch
Visualization orbit readout
Latitude
Unknown
Longitude
Unknown
Altitude
Unknown
Speed
Unknown
Apparent Right ascension
Unknown
Apparent Declination
Unknown
Sunlit
N/A
Visualization observer readout
Local Sidereal Time
05:52:33
Azimuth
Unknown
Elevation
Unknown
Doppler factor
Unknown
Orbital elements
Apogee altitude
476.111 km
Perigee altitude
474.899 km
Semi-major axis
6,853.642 km
Eccentricity
0.00009
Inclination
53.1587°
RAAN
259.9873°
Arg. of periapsis
102.6116°
True anomaly
257.48851°
Mean anomaly
257.4984°
Eccentric anomaly
257.49346°
Mean motion
3.82526 °/min
Orbital period
94.11 mins
BSTAR
0.000021084
Loading maneuver chart data...
Computing Atmospheric mass density...
Loading historical data...
Loading historical data...
Loading historical data...
Loading historical data...
Loading historical data...
Loading historical data...
Loading historical data...

Documentation

Showing up to 5 results
|